• In Germany
  • List of Countries
  • For 7 days
  • Water Temperature
  • Satellite Maps
  • Weather Map
  • Weather Widgets
  • user-avatar
    Login

    Hourly Weather Ashkelon

    Today, 22 October, Monday

    Time Temperature Precipitation Wind Pressure Humidity
    00:00 +27°C° 0 mm 3 mps 757 mmHg 54%
    01:00 +27°C° 0 mm 3 mps 757 mmHg 51%
    02:00 +26°C° 0 mm 4 mps 757 mmHg 47%
    03:00 +26°C° 0 mm 4 mps 757 mmHg 46%
    04:00 +26°C° 0 mm 4 mps 757 mmHg 45%
    05:00 +26°C° 0 mm 4 mps 757 mmHg 45%
    06:00 +27°C° 0 mm 4 mps 757 mmHg 41%
    07:00 +28°C° 0 mm 4 mps 757 mmHg 37%
    08:00 +30°C° 0 mm 4 mps 757 mmHg 30%
    09:00 +32°C° 0 mm 4 mps 757 mmHg 27%
    10:00 +34°C° 0 mm 4 mps 757 mmHg 25%
    11:00 +35°C° 0 mm 3 mps 757 mmHg 22%
    12:00 +36°C° 0 mm 3 mps 757 mmHg 22%
    13:00 +36°C° 0 mm 3 mps 756 mmHg 22%
    14:00 +36°C° 0 mm 2 mps 756 mmHg 21%
    15:00 +35°C° 0 mm 2 mps 756 mmHg 23%
    16:00 +35°C° 0 mm 2 mps 755 mmHg 24%
    17:00 +34°C° 0 mm 2 mps 755 mmHg 26%
    18:00 +33°C° 0 mm 3 mps 755 mmHg 27%
    19:00 +33°C° 0 mm 4 mps 755 mmHg 27%
    20:00 +32°C° 0 mm 4 mps 756 mmHg 28%
    21:00 +32°C° 0.2 mm 4 mps 756 mmHg 29%
    22:00 +30°C° 0.2 mm 4 mps 756 mmHg 30%
    23:00 +30°C° 0.2 mm 4 mps 756 mmHg 31%

    Tomorrow, 23 October, Tuesday

    Time Temperature Precipitation Wind Pressure Humidity
    00:00 +30°C° 0.1 mm 4 mps 756 mmHg 32%
    01:00 +29°C° 0.1 mm 4 mps 756 mmHg 32%
    02:00 +29°C° 0.1 mm 4 mps 756 mmHg 33%
    03:00 +29°C° 0 mm 4 mps 756 mmHg 33%
    04:00 +29°C° 0 mm 4 mps 755 mmHg 34%
    05:00 +28°C° 0 mm 4 mps 755 mmHg 34%
    06:00 +29°C° 0 mm 4 mps 755 mmHg 32%
    07:00 +30°C° 0 mm 4 mps 756 mmHg 30%
    08:00 +32°C° 0 mm 4 mps 756 mmHg 28%
    09:00 +33°C° 0 mm 4 mps 756 mmHg 27%
    10:00 +34°C° 0 mm 5 mps 756 mmHg 25%
    11:00 +36°C° 0 mm 5 mps 756 mmHg 24%
    12:00 +35°C° 0 mm 5 mps 756 mmHg 25%
    13:00 +35°C° 0 mm 5 mps 755 mmHg 26%
    14:00 +35°C° 0 mm 5 mps 755 mmHg 27%
    15:00 +34°C° 0 mm 5 mps 755 mmHg 33%
    16:00 +33°C° 0 mm 4 mps 754 mmHg 38%
    17:00 +30°C° 0 mm 3 mps 754 mmHg 43%
    18:00 +30°C° 0 mm 3 mps 755 mmHg 45%
    19:00 +29°C° 0 mm 3 mps 755 mmHg 47%
    20:00 +29°C° 0 mm 3 mps 755 mmHg 49%
    21:00 +29°C° 0 mm 2 mps 755 mmHg 46%
    22:00 +29°C° 0 mm 2 mps 755 mmHg 42%
    23:00 +29°C° 0 mm 2 mps 755 mmHg 39%

    Day after tomorrow, 24 October, Wednesday

    Time Temperature Precipitation Wind Pressure Humidity
    00:00 +29°C° 0 mm 2 mps 755 mmHg 39%
    01:00 +29°C° 0 mm 1 mps 755 mmHg 39%
    02:00 +28°C° 0 mm 1 mps 754 mmHg 39%
    03:00 +28°C° 0 mm 1 mps 754 mmHg 38%
    04:00 +28°C° 0 mm 2 mps 754 mmHg 37%
    05:00 +28°C° 0 mm 2 mps 754 mmHg 37%
    06:00 +29°C° 0 mm 3 mps 754 mmHg 34%
    07:00 +29°C° 0 mm 4 mps 754 mmHg 32%
    08:00 +30°C° 0 mm 5 mps 754 mmHg 30%
    09:00 +32°C° 0 mm 5 mps 754 mmHg 27%
    10:00 +34°C° 0 mm 5 mps 754 mmHg 25%
    11:00 +35°C° 0 mm 5 mps 753 mmHg 23%
    12:00 +36°C° 0 mm 5 mps 753 mmHg 22%
    13:00 +36°C° 0 mm 5 mps 752 mmHg 21%
    14:00 +37°C° 0 mm 4 mps 752 mmHg 20%
    15:00 +35°C° 0 mm 4 mps 751 mmHg 26%
    16:00 +34°C° 0 mm 4 mps 751 mmHg 31%
    17:00 +31°C° 0 mm 3 mps 751 mmHg 37%
    18:00 +31°C° 0 mm 3 mps 751 mmHg 34%
    19:00 +31°C° 0 mm 3 mps 751 mmHg 32%
    20:00 +30°C° 0 mm 2 mps 752 mmHg 29%
    21:00 +30°C° 0 mm 3 mps 752 mmHg 30%
    22:00 +29°C° 0 mm 3 mps 752 mmHg 31%
    23:00 +29°C° 0 mm 3 mps 752 mmHg 32%

    25 October, Thursday

    Time Temperature Precipitation Wind Pressure Humidity
    00:00 +29°C° 0 mm 3 mps 752 mmHg 34%
    01:00 +28°C° 0 mm 4 mps 752 mmHg 37%
    02:00 +28°C° 0 mm 5 mps 752 mmHg 39%
    03:00 +27°C° 0 mm 6 mps 752 mmHg 50%
    04:00 +26°C° 0 mm 6 mps 751 mmHg 61%
    05:00 +24°C° 0 mm 7 mps 751 mmHg 72%
    06:00 +24°C° 0.3 mm 6 mps 752 mmHg 70%
    07:00 +25°C° 0.3 mm 5 mps 752 mmHg 69%
    08:00 +26°C° 0.3 mm 4 mps 752 mmHg 68%
    09:00 +27°C° 0 mm 4 mps 752 mmHg 60%
    10:00 +28°C° 0 mm 4 mps 752 mmHg 53%
    11:00 +30°C° 0 mm 4 mps 752 mmHg 46%
    12:00 +29°C° 0 mm 5 mps 752 mmHg 50%
    13:00 +29°C° 0 mm 6 mps 752 mmHg 55%
    14:00 +28°C° 0 mm 7 mps 751 mmHg 59%
    15:00 +28°C° 0.1 mm 7 mps 752 mmHg 62%
    16:00 +27°C° 0.1 mm 7 mps 752 mmHg 64%
    17:00 +26°C° 0.1 mm 7 mps 752 mmHg 66%
    18:00 +26°C° 0.1 mm 7 mps 753 mmHg 66%
    19:00 +26°C° 0.1 mm 7 mps 753 mmHg 66%
    20:00 +26°C° 0.1 mm 7 mps 754 mmHg 66%
    21:00 +24°C° 0.3 mm 6 mps 754 mmHg 67%
    22:00 +24°C° 0.3 mm 6 mps 755 mmHg 69%
    23:00 +24°C° 0.3 mm 6 mps 755 mmHg 71%

    26 October, Friday

    Time Temperature Precipitation Wind Pressure Humidity
    00:00 +23°C° 0.4 mm 6 mps 755 mmHg 72%
    01:00 +23°C° 0.4 mm 5 mps 755 mmHg 73%
    02:00 +23°C° 0.4 mm 5 mps 755 mmHg 74%
    03:00 +23°C° 0.3 mm 5 mps 755 mmHg 73%
    04:00 +23°C° 0.3 mm 5 mps 756 mmHg 73%
    05:00 +23°C° 0.3 mm 5 mps 756 mmHg 73%
    06:00 +23°C° 0.1 mm 5 mps 757 mmHg 70%
    07:00 +23°C° 0.1 mm 5 mps 757 mmHg 67%
    08:00 +25°C° 0.1 mm 4 mps 758 mmHg 64%
    09:00 +25°C° 0 mm 5 mps 758 mmHg 59%
    10:00 +26°C° 0 mm 5 mps 758 mmHg 54%
    11:00 +26°C° 0 mm 5 mps 758 mmHg 50%
    12:00 +26°C° 0 mm 5 mps 758 mmHg 48%
    13:00 +27°C° 0 mm 5 mps 758 mmHg 47%
    14:00 +27°C° 0 mm 5 mps 758 mmHg 45%
    15:00 +26°C° 0 mm 4 mps 758 mmHg 47%
    16:00 +25°C° 0 mm 4 mps 758 mmHg 49%
    17:00 +25°C° 0 mm 3 mps 759 mmHg 51%
    18:00 +25°C° 0 mm 2 mps 759 mmHg 53%
    19:00 +24°C° 0 mm 2 mps 760 mmHg 55%
    20:00 +24°C° 0 mm 1 mps 760 mmHg 56%
    21:00 +24°C° 0 mm 1 mps 760 mmHg 58%
    22:00 +23°C° 0 mm 1 mps 760 mmHg 60%
    23:00 +23°C° 0 mm 1 mps 761 mmHg 61%

    27 October, Saturday

    Time Temperature Precipitation Wind Pressure Humidity
    00:00 +23°C° 0 mm 1 mps 761 mmHg 62%
    01:00 +22°C° 0 mm 1 mps 761 mmHg 63%
    02:00 +22°C° 0 mm 1 mps 761 mmHg 63%
    03:00 +22°C° 0 mm 1 mps 761 mmHg 63%
    04:00 +21°C° 0 mm 2 mps 761 mmHg 63%
    05:00 +20°C° 0 mm 2 mps 761 mmHg 62%
    06:00 +21°C° 0 mm 2 mps 762 mmHg 58%
    07:00 +23°C° 0 mm 2 mps 762 mmHg 54%
    08:00 +24°C° 0 mm 2 mps 762 mmHg 50%
    09:00 +25°C° 0 mm 2 mps 762 mmHg 45%
    10:00 +26°C° 0 mm 2 mps 762 mmHg 39%
    11:00 +27°C° 0 mm 2 mps 762 mmHg 34%
    12:00 +28°C° 0 mm 3 mps 761 mmHg 33%
    13:00 +28°C° 0 mm 3 mps 761 mmHg 31%
    14:00 +29°C° 0 mm 4 mps 760 mmHg 30%
    15:00 +29°C° 0 mm 4 mps 760 mmHg 32%
    16:00 +28°C° 0 mm 5 mps 760 mmHg 34%
    17:00 +28°C° 0 mm 5 mps 760 mmHg 36%
    18:00 +27°C° 0 mm 5 mps 760 mmHg 39%
    19:00 +27°C° 0 mm 6 mps 760 mmHg 42%
    20:00 +26°C° 0 mm 6 mps 760 mmHg 45%
    21:00 +26°C° 0 mm 5 mps 760 mmHg 45%
    22:00 +26°C° 0 mm 5 mps 760 mmHg 45%
    23:00 +26°C° 0 mm 4 mps 760 mmHg 44%

    28 October, Sunday

    Time Temperature Precipitation Wind Pressure Humidity
    00:00 +26°C° 0 mm 4 mps 760 mmHg 44%
    01:00 +26°C° 0 mm 4 mps 760 mmHg 44%
    02:00 +25°C° 0 mm 4 mps 759 mmHg 43%
    03:00 +25°C° 0 mm 3 mps 759 mmHg 44%
    04:00 +25°C° 0 mm 3 mps 759 mmHg 45%
    05:00 +25°C° 0 mm 3 mps 759 mmHg 46%
    06:00 +26°C° 0 mm 4 mps 760 mmHg 45%
    07:00 +27°C° 0 mm 4 mps 760 mmHg 44%
    08:00 +28°C° 0 mm 5 mps 760 mmHg 43%
    09:00 +29°C° 0 mm 5 mps 760 mmHg 41%
    10:00 +30°C° 0 mm 4 mps 760 mmHg 39%
    11:00 +32°C° 0 mm 4 mps 760 mmHg 37%
    12:00 +33°C° 0 mm 4 mps 759 mmHg 35%
    13:00 +33°C° 0 mm 4 mps 759 mmHg 34%
    14:00 +33°C° 0 mm 4 mps 759 mmHg 33%
    15:00 +33°C° 0 mm 4 mps 758 mmHg 35%
    16:00 +32°C° 0 mm 4 mps 758 mmHg 37%
    17:00 +32°C° 0 mm 4 mps 758 mmHg 39%
    18:00 +30°C° 0 mm 4 mps 758 mmHg 40%
    19:00 +30°C° 0 mm 4 mps 758 mmHg 41%
    20:00 +29°C° 0 mm 4 mps 759 mmHg 42%
    21:00 +29°C° 0 mm 4 mps 759 mmHg 42%
    22:00 +29°C° 0 mm 4 mps 759 mmHg 43%
    23:00 +29°C° 0 mm 4 mps 759 mmHg 43%
    Show more